DW6557 Weather Reports


time (UTC)temp
C
wind
direction
speed
KPH
gust
KPH
rain 1hr
cm
rain 24hr
cm
rain mn
cm
humidity
%
barometer
mb
20260504034547 7 84 0.0 0.0 0.00 0.00 0.00 85 1020.4
20260504033039 8 84 0.0 0.0 0.00 0.00 0.00 84 1020.4
20260504031541 8 84 0.0 0.0 0.00 0.00 0.00 84 1020.4
20260504030037 8 84 0.0 0.0 0.00 0.00 0.00 84 1020.4
20260504024540 8 84 0.0 0.0 0.00 0.03 0.00 83 1020.4
20260504023034 8 84 0.0 0.0 0.00 0.03 0.00 82 1020.3
20260504021531 8 84 0.0 0.0 0.00 0.03 0.00 82 1020.1
20260504020036 8 84 0.0 0.0 0.00 0.03 0.00 82 1019.9
20260504014530 9 84 0.0 0.0 0.00 0.05 0.00 81 1019.7
20260504013031 9 84 0.0 0.0 0.00 0.05 0.00 80 1019.5
20260504011521 10 84 0.0 0.0 0.00 0.05 0.00 79 1019.3
20260504010018 10 84 0.0 0.0 0.00 0.05 0.00 79 1019.1
20260504004516 11 84 0.0 0.0 0.00 0.15 0.00 78 1019.0
20260504003015 11 84 0.0 0.0 0.00 0.15 0.00 78 1018.9
20260504001522 11 84 0.0 1.6 0.00 0.15 0.00 78 1018.7
20260504000011 11 84 0.0 4.8 0.00 0.15 0.00 77 1018.6
20260503234511 11 102 0.0 9.7 0.00 0.25 0.00 76 1018.5
20260503233017 12 90 0.0 6.4 0.00 0.25 0.00 75 1018.4
20260503231509 12 111 0.0 6.4 0.00 0.25 0.00 73 1018.2
20260503230031 12 102 0.0 11.3 0.00 0.25 0.00 72 1018.1
20260503224508 12 96 0.0 11.3 0.00 0.33 0.00 71 1018.0
20260503223008 12 90 1.6 11.3 0.00 0.33 0.00 69 1018.1
20260503221508 13 121 1.6 11.3 0.00 0.33 0.00 68 1018.0
20260503220008 13 105 0.0 8.0 0.00 0.33 0.00 67 1018.0
20260503214515 13 115 1.6 11.3 0.00 0.43 0.00 67 1018.1
20260503213006 13 120 0.0 12.9 0.00 0.43 0.00 65 1018.3
20260503211505 13 169 1.6 16.1 0.00 0.43 0.00 65 1018.3
20260503210005 13 46 1.6 9.7 0.00 0.43 0.00 66 1018.2
20260503204503 13 97 1.6 11.3 0.00 0.51 0.00 65 1018.2
20260503203009 13 89 3.2 14.5 0.00 0.51 0.00 65 1018.1
20260503201501 13 76 1.6 11.3 0.00 0.51 0.00 65 1018.0
20260503200001 13 50 1.6 19.3 0.00 0.51 0.00 65 1018.0
20260503194610 13 103 3.2 19.3 0.00 0.56 0.00 65 1018.1
20260503193118 14 68 4.8 14.5 0.00 0.56 0.00 64 1018.2
20260503191618 14 92 3.2 17.7 0.00 0.56 0.00 63 1018.5
20260503184607 15 345 6.4 17.7 0.00 0.58 0.00 56 1018.8
20260503183056 16 338 1.6 9.7 0.00 0.58 0.00 57 1018.8
20260503181555 15 39 1.6 16.1 0.00 0.58 0.00 57 1018.8
20260503180059 15 307 1.6 14.5 0.00 0.58 0.00 57 1018.8
20260503174554 15 70 1.6 19.3 0.00 0.64 0.00 57 1018.9
20260503173051 15 19 3.2 19.3 0.00 0.64 0.00 57 1019.1
20260503171550 15 319 3.2 19.3 0.00 0.64 0.00 58 1019.0
20260503170103 15 355 1.6 14.5 0.00 0.64 0.00 56 1019.0
20260503100106 12 342 3.2 17.7 0.00 1.07 0.00 72 1015.4
20260503081543 12 346 1.6 19.3 0.00 1.12 0.00 73 1014.2
20260503071533 12 321 4.8 20.9 0.00 1.12 0.00 72 1013.5
20260503054700 12 33 4.8 25.7 0.00 1.14 0.00 72 1012.4
20260503053057 12 360 4.8 20.9 0.00 1.14 0.00 71 1012.3
20260503051555 11 328 4.8 22.5 0.00 1.14 0.00 70 1012.7
20260503050052 12 346 4.8 22.5 0.00 1.14 0.00 70 1012.8
20260503044551 12 32 8.0 22.5 0.00 1.14 0.00 73 1012.6
20260503043054 12 345 6.4 29.0 0.00 1.14 0.00 74 1012.6
20260503041544 12 341 6.4 24.1 0.00 1.14 0.00 76 1012.5
20260503040040 12 63 3.2 27.4 0.00 1.14 0.00 79 1012.4